This demonstration page uses our WeatherBlox Daily Observations layout. Learn more.

Left ArrowRight Arrow

36.17497, -115.13722

Hourly Observations for August 13, 2017

Temp ( °F °C ) Dew Point ( °F °C ) Humidity (%) Winds ( mph kmh ) Pressure ( in mb ) Visibility ( mi km ) Precip ( " mm )
12:53 am 00:53 Clear 88 31.1 57 13.9 35 35 N N/A 29.81 1010 10 16.0934 N/A
1:53 am 01:53 Clear 86 30 58 14.4 39 39 S 5 7 29.81 1010 10 16.0934 N/A
2:53 am 02:53 Clear 85 29.4 58 14.4 40 40 WSW 3 6 29.82 1010 10 16.0934 N/A
3:53 am 03:53 Clear 84 28.9 58 14.4 41 41 S 3 6 29.83 1010 10 16.0934 N/A
4:53 am 04:53 Clear 70 21.1 58 14.4 66 66 N N/A 29.85 1011 10 16.0934 N/A
5:53 am 05:53 Clear 80 26.7 59 15 49 49 N N/A 29.86 1011 10 16.0934 N/A
6:53 am 06:53 Mostly Sunny 81 27.2 59 15 47 47 SE 3 6 29.87 1012 10 16.0934 N/A
7:53 am 07:53 Sunny 85 29.4 50 10 30 30 E 7 11 29.89 1012 10 16.0934 N/A
8:53 am 08:53 Sunny 89 31.7 40 4.4 18 18 SE 12 19 29.89 1012 10 16.0934 N/A
9:53 am 09:53 Sunny 93 33.9 38 3.3 14 14 S 9 15 29.89 1012 10 16.0934 N/A
10:53 am 10:53 Sunny 96 35.6 39 3.9 14 14 SSW 15 24 29.88 1012 10 16.0934 N/A
11:53 am 11:53 Sunny 97 36.1 50 10 20 20 S 10 17 29.86 1011 10 16.0934 N/A
12:53 pm 12:53 Sunny 98 36.7 41 5 14 14 S 9 15 29.84 1010 10 16.0934 N/A
1:53 pm 13:53 Sunny 101 38.3 41 5 13 13 S 15 24 29.8 1009 10 16.0934 N/A
2:53 pm 14:53 Sunny 102 38.9 38 3.3 11 11 SW 15 24 29.76 1008 10 16.0934 N/A
3:53 pm 15:53 Sunny 102 38.9 38 3.3 11 11 W 13 20 29.74 1007 10 16.0934 N/A
4:53 pm 16:53 Sunny 103 39.4 29 -1.7 7 7 WSW 16 26 29.73 1007 10 16.0934 N/A
5:53 pm 17:53 Sunny 101 38.3 17 -8.3 5 5 W 16 26 29.71 1006 10 16.0934 N/A
6:53 pm 18:53 Sunny 99 37.2 15 -9.4 5 5 WSW 16 26 29.71 1006 10 16.0934 N/A
7:53 pm 19:53 Clear 96 35.6 18 -7.8 6 6 SW 9 15 29.71 1006 10 16.0934 N/A
8:53 pm 20:53 Clear 94 34.4 19 -7.2 6 6 SSW 8 13 29.72 1007 10 16.0934 N/A
9:53 pm 21:53 Clear 91 32.8 22 -5.6 8 8 SW 7 11 29.73 1007 10 16.0934 N/A
10:53 pm 22:53 Clear 90 32.2 19 -7.2 7 7 W 7 11 29.72 1006 10 16.0934 N/A
11:53 pm 23:53 Clear 89 31.7 19 -7.2 7 7 SW 8 13 29.73 1007 10 16.0934 N/A

Powered by AerisWeather